Find Mandrake 2A

NORAD ID: 48907 Int'l Des: 2021-059 Owner: SDA/DARPA2 Country: US operational
LEOCIRCULARRETROGRADE

Live Position

Loading 3D Globe...

About Mandrake 2A

Description loading...

Upcoming Passes

Passes for default location (London). Set your location on the main map for personalized predictions.

Altitude History

Loading altitude history...

Two-Line Element Set

1 48907U 21059AE 26110.40667485 .00016682 00000-0 27230-3 0 9995
2 48907 97.7051 295.8866 0005242 188.0452 172.0717 15.52649396268151
Epoch: Apr 20, 2026 • Age: 15 hours

Current Status

Altitude 434.4 km
Velocity 7.65 km/s
Sub-Earth Point -72.53°S, 129.45°W
Launch Date Jun 30, 2021
Age 4.8 years
Type other

Technical Details

Classification Payload
Mass 23.00 kg
Dry Mass 23.00 kg
Total Mass 23.00 kg
Length 0.50 m
Diameter 0.50 m
Span 0.50 m
Shape Box + pan
Manufacturer ADIG
Bus Type Corvus-XL
Phase Status In Orbit
Owner/State SDA/DARPA2/US

Most Searched